WetterOnline ( https://www.wetteronline.de )

Wetter aktuell Taunus (in 800m)

Aktuelles Wetter: Kleiner Feldberg (802m)

6-stündlich | Neueste Meldungen
Ortszeit Temperatur Wetter
Di, 25.01. 1:00 3.1° C wolkenlos
Mo, 24.01. 19:00 -1.7° C Nebel
Mo, 24.01. 13:00 -1.3° C Nebel
Mo, 24.01. 7:00 -1.6° C Nebel
Mo, 24.01. 1:00 -1.2° C Nebel
So, 23.01. 19:00 -1.1° C bedeckt
So, 23.01. 13:00 -0.9° C bedeckt
So, 23.01. 7:00 -0.4° C gefr. Sprühregen
Ortszeit Temperatur Wetter
Di, 25.01. 7:00 1.6° C wolkenlos
Di, 25.01. 6:30 1.4° C wolkenlos
Di, 25.01. 6:00 1.3° C wolkenlos
Di, 25.01. 5:30 0.8° C wolkenlos
Di, 25.01. 5:00 0.4° C wolkenlos
Di, 25.01. 4:30 1.1° C wolkenlos
Di, 25.01. 4:00 2.1° C wolkenlos
Ortszeit Relative Feuchte Sichtweite
Di, 25.01. 1:00 74% >70 km
Mo, 24.01. 19:00 99% <100 m
Mo, 24.01. 13:00 98% 100 m
Mo, 24.01. 7:00 99% <100 m
Mo, 24.01. 1:00 99% 100 m
So, 23.01. 19:00 94% 22 km
So, 23.01. 13:00 92% 35 km
So, 23.01. 7:00 99% <100 m
Ortszeit Relative Feuchte Sichtweite
Di, 25.01. 7:00 76% 60 km
Di, 25.01. 6:30 78% 65 km
Di, 25.01. 6:00 78% 65 km
Di, 25.01. 5:30 81% 55 km
Di, 25.01. 5:00 84% 40 km
Di, 25.01. 4:30 77% 40 km
Di, 25.01. 4:00 73% 40 km
Ortszeit Niederschlagsmenge Niederschlagsart
Di, 25.01. 1:00 0.0 l/m2 in 6 Std. -
Mo, 24.01. 19:00 0.0 l/m2 in 12 Std. -
Mo, 24.01. 13:00 0.0 l/m2 in 6 Std. -
Mo, 24.01. 7:00 0.0 l/m2 in 12 Std. -
Mo, 24.01. 1:00 0.0 l/m2 in 6 Std. -
So, 23.01. 19:00 0.1 l/m2 in 12 Std. -
So, 23.01. 13:00 0.1 l/m2 in 6 Std. Schnee, Regen
So, 23.01. 7:00 0.1 l/m2 in 12 Std. Regen
Ortszeit Niederschlagsmenge Niederschlagsart
Di, 25.01. 7:00 keine Meldung -
Di, 25.01. 6:30 0.0 l/m2 in 1 Std. -
Di, 25.01. 6:00 0.0 l/m2 in 1 Std. -
Di, 25.01. 5:30 0.0 l/m2 in 1 Std. -
Di, 25.01. 5:00 0.0 l/m2 in 1 Std. -
Di, 25.01. 4:30 0.0 l/m2 in 1 Std. -
Di, 25.01. 4:00 0.0 l/m2 in 1 Std. -
Ortszeit Stärke Spitze Richtung
km/h Bft. km/h Grad Sektor
Di, 25.01. 1:00 11 2 18 330° NW
Mo, 24.01. 19:00 11 2 25 110° O
Mo, 24.01. 13:00 17 3 31 120° SO
Mo, 24.01. 7:00 14 3 36 110° O
Mo, 24.01. 1:00 24 4 44 110° O
So, 23.01. 19:00 6 1 17 50° NO
So, 23.01. 13:00 11 2 25 20° N
So, 23.01. 7:00 9 2 31 340° N
Ortszeit Stärke Spitze Richtung
km/h Bft. km/h Grad Sektor
Di, 25.01. 7:00 7 2 13 260° W
Di, 25.01. 6:30 9 2 11 280° W
Di, 25.01. 6:00 9 2 11 260° W
Di, 25.01. 5:30 9 2 11 250° W
Di, 25.01. 5:00 9 2 11 250° W
Di, 25.01. 4:30 6 1 9 250° W
Di, 25.01. 4:00 4 1 11 300° NW
Ortszeit Untergrenze Bedeckung Gattung
total tief tief mittel hoch
Di, 25.01. 1:00 - 0/8 0/8 - - -
Mo, 24.01. 19:00 <30 m 8/8 0/8 - - -
Mo, 24.01. 13:00 <30 m 8/8 0/8 - - -
Mo, 24.01. 7:00 <30 m 8/8 0/8 - - -
Mo, 24.01. 1:00 <30 m 8/8 0/8 - - -
So, 23.01. 19:00 150 m 8/8 8/8 - - -
So, 23.01. 13:00 270 m 8/8 8/8 - - -
So, 23.01. 7:00 <30 m 8/8 0/8 - - -
Ortszeit Bedeckungsgrad in Achtel und Wolkenuntergrenze
Di, 25.01. 7:00 keine Wolken
Di, 25.01. 6:30 keine Wolken
Di, 25.01. 6:00 keine Wolken
Di, 25.01. 5:30 keine Wolken
Di, 25.01. 5:00 keine Wolken
Di, 25.01. 4:30 keine Wolken
Di, 25.01. 4:00 keine Wolken
Ortszeit Stationsdruck (hPa) Tendenz (hPa in 3 Std.)
Di, 25.01. 1:00 934 - 0,4
Mo, 24.01. 19:00 934 0,0
Mo, 24.01. 13:00 934 - 0,2
Mo, 24.01. 7:00 934 - 0,5
Mo, 24.01. 1:00 935 - 0,5
So, 23.01. 19:00 935 0,0
So, 23.01. 13:00 936 - 0,1
So, 23.01. 7:00 935 + 0,4
Ortszeit Stationsdruck (hPa) Tendenz (hPa in 3 Std.)
Di, 25.01. 7:00 933 - 0,3
Di, 25.01. 6:30 933 - 0,6
Di, 25.01. 6:00 933 - 0,7
Di, 25.01. 5:30 933 - 0,6
Di, 25.01. 5:00 933 - 0,7
Di, 25.01. 4:30 933 - 0,5
Di, 25.01. 4:00 933 - 0,4
Ortszeit Schneehöhe (cm)
Di, 25.01. 1:00 13
Mo, 24.01. 19:00 13
Mo, 24.01. 13:00 14
Mo, 24.01. 7:00 14
Mo, 24.01. 1:00 14
So, 23.01. 19:00 14
So, 23.01. 13:00 14
So, 23.01. 7:00 15
Ortszeit Schneehöhe (cm)
Di, 25.01. 7:00 13
Di, 25.01. 6:30 13
Di, 25.01. 6:00 13
Di, 25.01. 5:30 13
Di, 25.01. 5:00 13
Di, 25.01. 4:30 13
Di, 25.01. 4:00 13
Link zu dieser Seite / Seite empfehlen

Das Wetter in ...